Regional Weather Roundup
Issued by NWS Mobile, AL

Home | Current Version | Previous Version | Text Only | Print | Product List | Glossary On
Versions: 1 2 3 4 5 6 7 8 9 10 11 12 13 14 15 16 17 18 19 20 21 22 23 24 25 26 27 28 29 30 31 32 33 34 35 36 37 38 39 40 41 42 43 44 45 46 47 48 49 50
000
ASUS44 KMOB 100110
RWRMOB
REGIONAL WEATHER ROUNDUP
NATIONAL WEATHER SERVICE MOBILE AL
800 PM CDT WED JUL 09 2014

NOTE: "FAIR" INDICATES FEW OR NO CLOUDS BELOW 12,000 FEET WITH NO
      SIGNIFICANT WEATHER AND/OR OBSTRUCTIONS TO VISIBILITY.

  * THESE STATIONS ARE PART OF THE UNIVERSITY OF SOUTH ALABAMA
    MESONET AND ARE NOT UNDER NWS OR FAA QUALITY CONTROL.

ALZ061>064-100200-
COASTAL ALABAMA

CITY           SKY/WX    TMP DP  RH WIND       PRES   REMARKS
MOBILE REG APT CLOUDY    76  70  82 S5        30.05R
BROOKLEY FIELD CLOUDY    78  72  81 CALM      30.05R
USA CAMPUS*      N/A     75  72  88 CALM      30.04R
DOG RIVER*       N/A     79  72  78 CALM      30.04S


CITY           SKY/WX    TMP DP  RH WIND       PRES   REMARKS
MOUNT VERNON*    N/A     73  72  94 CALM      30.05R
SARALAND*      NOT AVBL
BAY MINETTE*   NOT AVBL
LOXLEY*          N/A     77  70  78 S2        30.05R
ROBERTSDALE*     N/A     79  72  78 CALM      30.05R
FAIRHOPE*        N/A     79  73  83 W3        30.04R
ELBERTA*         N/A     79  68  69 CALM      30.05R
FOLEY*         NOT AVBL
GRAND BAY*       N/A     75  73  94 CALM      30.02S
DAUPHIN ISLND* NOT AVBL
BON SCOUR NWR* NOT AVBL
GULF SHORES    CLOUDY    78  71  77 W5        30.05R

$$

ALZ051>060-100200-
INTERIOR SOUTHWEST AND SOUTH CENTRAL ALABAMA

CITY           SKY/WX    TMP DP  RH WIND       PRES   REMARKS
GREENVILLE     PTCLDY    78  68  71 CALM      30.04R
EVERGREEN      PTCLDY    78  73  84 S6        30.05R
CASTLEBERRY*   NOT AVBL
ATMORE*          N/A     73  72  94 CALM      30.06R
DIXIE*         NOT AVBL
ANDALUSIA/OPP  MOCLDY    78  70  76 W5        30.05R
ANDALUSIA*     NOT AVBL
FLORALA APT    CLOUDY    74  71  91 CALM      30.07R
FLORALA*         N/A     72  70  94 CALM      30.04R

$$

FLZ001>006-100200-
WESTERN FLORIDA PANHANDLE

CITY           SKY/WX    TMP DP  RH WIND       PRES   REMARKS
PENSACOLA      CLOUDY    81  74  79 SW7       30.04R
NAS PENSACOLA  CLOUDY    80  73  79 W3        30.04R
MILTON         MOCLDY    75  73  93 CALM      30.05R
WHTNG S FIELD  MOCLDY    76  72  87 CALM      30.05R


CITY           SKY/WX    TMP DP  RH WIND       PRES   REMARKS
WALNUT HILL*   NOT AVBL
JAY*           NOT AVBL
DUKE FIELD     MOCLDY    75  75  99 S2        30.05R
CRESTVIEW      CLOUDY    75  72  90 S3        30.07R
VALPARAISO     MOCLDY    77  72  85 NW2       30.05R
DESTIN         MOCLDY    82  72  71 CALM      30.04R

$$

MSZ076-079-100200-
INTERIOR SOUTHEAST MISSISSIPPI

CITY           SKY/WX    TMP DP  RH WIND       PRES   REMARKS
LEAKESVILLE*   NOT AVBL
AGRICOLA*      NOT AVBL

$$

MARINE OBSERVATIONS

STATION/POSITION TIME  TEMP    WIND        PRES    WAVE
                       AIR SEA DIR/SP/G            HT/PER
                 (UTC) (F)     (DEG/KT/KT) (MB)    (FT/S)
PASCAGOULA       0100   80     230/  6/  7 1016.7R
PETIT BOIS ISLND 0100   81     230/  9/ 10 1017.3R
GRAND BAY        0000   79     240/  8     1018.0S
KATRINA CUT      0000   80     250/  9     1017.6R
CEDAR POINT      0000   80     260/ 11     1016.9S
E DAUPHIN ISLAND 0000   80     250/  6/  8 1017.3R
MIDDLE BAY LIGHT 0000   81     240/ 13     1017.3R
USCG MOBILE BAY  0100   79 85  200/  4/  5 1016.1S
STATE DOCKS      0100   81 85              1016.8F
MEAHER PARK      0000   81     210/  6     1016.9R
WEEKS BAY        0000   80                   N/A
FORT MORGAN      0100   81     240/  8/  9 1017.0S
12 S ORANGE BCH  0100   82 84  270/ 12/ 14 1017.5R   2/ 3
PENSACOLA BAY    0100   83 85  270/  2/  6 1017.5R
64 S DAUPHIN ISL 0045   84 87  220/ 12/ 14 1017.5F
67 S FORT MORGAN 0000   81                 1017.6F

$$

SELECTED LOCATIONS ACROSS THE REGION

CITY           SKY/WX    TMP DP  RH WIND       PRES   REMARKS
NEW ORLEANS    CLOUDY    76  72  87 W3        30.03F
GULFPORT       CLOUDY    79  73  82 CALM      30.03R
PASCAGOULA AP  CLOUDY    75  72  90 CALM      30.04R
PASCAGOULA*      N/A     73  73 100 CALM      30.03R
HATTIESBURG    MOCLDY    82  73  74 W3        30.04R
LAUREL         MOCLDY    81  70  69 CALM      30.05S
MERIDIAN       MOCLDY    79  69  71 CALM      30.02R
JACKSON        MOCLDY    79  73  82 SW6       30.02R
MONTGOMERY     CLOUDY    75  71  87 S6        30.04R
TROY           CLOUDY    74  71  91 E3        30.06F
KINSTON*       NOT AVBL
GENEVA*          N/A     73  70  88 CALM      30.07R
ASHFORD*       NOT AVBL
DOTHAN         CLOUDY    76  68  76 NW5       30.10R
PANAMA CITY    PTCLDY    81  71  71 SW6       30.05R

$$



USA.gov is the U.S. government's official web portal to all federal, state and local government web resources and services.